Theta_e
350 352 361 361 361 361 361 361 362 362 361 361 360 359 359 359 358 357 356 355 355 355 356 356 356 355 353 351 350 350 348 347 346 347 347 343 342 343 347 352 356 354 355
353 353 361 361 361 361 360 361 362 362 361 361 360 359 358 357 357 356 356 355 354 355 356 355 351 348 348 347 347 347 346 346 346 346 347 343 340 339 343 345 347 350 356
353 353 355 362 363 362 361 362 361 362 362 360 358 357 357 357 356 356 355 355 355 355 353 351 348 347 346 345 345 344 345 346 347 348 347 341 340 341 343 347 348 351 359
354 353 350 362 363 363 362 362 362 361 360 358 357 357 357 356 355 354 354 354 354 353 350 348 347 346 345 345 345 346 348 349 350 349 346 343 342 344 346 349 350 353 355
355 351 353 362 363 363 361 362 362 360 360 358 356 356 355 355 353 352 352 353 352 349 348 348 347 346 345 346 348 350 351 352 351 350 344 343 342 346 350 351 353 355 353
353 351 358 362 363 363 362 361 361 360 359 358 356 355 354 353 351 349 350 351 349 348 347 346 346 345 346 349 349 346 344 344 344 340 342 343 342 346 346 344 344 347 355
351 352 354 361 362 362 361 360 360 360 360 359 356 355 353 352 349 348 349 349 348 348 347 344 345 348 348 345 343 341 339 339 338 338 339 339 339 341 342 344 343 342 343
348 353 352 359 362 362 361 361 361 361 360 358 356 354 353 350 348 347 349 349 349 349 349 348 349 347 342 341 339 336 335 335 337 337 337 337 338 335 337 340 341 342 341
349 352 356 350 357 361 361 361 361 361 360 358 356 354 352 350 348 347 348 349 350 351 350 347 344 340 338 336 335 333 333 333 334 337 335 335 334 334 336 337 338 339 340
347 350 354 354 349 351 354 360 360 359 358 357 355 353 351 350 348 348 350 350 352 352 345 343 338 336 334 332 331 330 332 335 336 335 334 334 331 333 334 335 336 337 337
343 347 350 350 350 349 348 354 358 357 357 355 353 352 349 345 348 351 350 352 351 345 341 338 334 330 328 330 328 328 331 335 333 332 332 330 328 330 331 333 334 335 336
340 344 348 350 349 349 346 353 353 352 351 350 348 350 346 346 349 345 350 347 343 340 337 333 329 329 331 338 336 333 333 333 332 331 330 326 326 329 331 332 333 334 334
339 341 344 350 352 349 347 349 349 349 349 350 352 351 349 348 346 343 346 343 344 337 341 337 338 338 335 334 334 333 331 329 328 327 329 323 325 328 330 330 331 333 335
336 340 344 348 351 351 347 347 347 347 348 347 348 352 349 346 346 346 343 346 343 344 341 339 335 335 334 332 330 328 327 326 325 324 326 321 322 325 327 328 329 329 330
339 343 344 347 351 351 352 347 346 346 346 346 349 349 346 344 346 344 346 343 341 339 336 336 336 331 328 328 327 326 324 323 323 322 322 321 319 323 324 325 326 327 327
344 345 346 346 351 350 351 350 347 348 347 348 345 345 347 344 347 343 342 342 341 338 336 331 322 322 327 327 325 325 324 323 323 323 322 322 320 319 320 321 324 325 326
347 351 352 349 350 351 350 350 348 346 345 345 344 347 345 346 346 344 343 343 340 334 322 321 323 328 327 325 324 322 322 322 321 322 322 322 323 321 318 318 320 322 324
351 353 356 351 349 351 349 349 346 346 345 345 345 344 344 343 343 341 340 340 333 324 327 322 327 326 324 322 321 320 319 321 320 321 322 322 321 320 319 317 317 319 321
352 354 355 356 350 351 352 348 348 349 347 345 344 342 343 339 338 342 341 333 324 322 326 326 326 324 321 320 319 317 318 318 319 319 321 321 320 320 320 318 315 318 317
350 354 356 356 357 355 351 349 346 346 345 345 342 341 341 339 337 340 332 324 321 326 328 327 325 323 321 318 316 315 317 318 320 319 319 320 318 319 320 319 318 317 315
347 347 352 354 358 354 348 344 342 341 342 341 341 340 340 338 334 332 329 325 329 328 327 326 323 321 317 317 315 314 315 319 319 319 318 318 318 318 318 318 318 317 317
349 349 350 351 355 353 348 347 345 344 342 342 340 339 338 333 331 329 325 332 332 326 326 325 323 317 314 316 313 312 308 311 317 317 317 316 317 317 315 316 318 317 317
348 349 349 351 352 352 352 348 346 344 342 338 338 335 333 329 327 331 332 329 328 325 321 322 319 317 312 314 317 311 306 305 309 315 315 314 315 314 314 315 316 316 317
347 349 350 350 351 350 351 347 346 340 337 339 338 335 330 329 330 329 328 326 324 321 319 317 315 317 316 312 313 314 315 313 306 304 310 312 313 312 313 313 314 315 316
344 346 348 349 349 348 348 348 344 344 342 338 332 331 330 328 327 323 323 320 319 316 318 318 318 318 315 313 312 310 311 310 310 306 302 306 310 311 311 312 311 313 314
344 345 347 347 347 347 347 347 347 342 337 333 331 328 326 324 323 322 318 319 318 318 318 317 318 317 315 313 311 310 307 306 306 305 304 305 306 309 308 309 310 311 312
Wind_Speed
14 19 16 14 13 13 14 15 15 15 14 13 13 13 12 11 10 9 8 8 8 8 8 8 8 8 8 8 7 7 6 6 6 5 5 3 2 4 5 6 8 13 8
18 19 17 16 15 14 13 14 14 13 13 13 13 12 12 10 10 8 7 6 6 7 7 7 8 7 8 7 7 6 6 6 7 6 6 9 6 4 6 8 10 12 6
19 19 19 16 15 14 14 14 14 12 12 12 12 12 11 9 9 8 7 6 6 7 6 6 7 7 8 7 7 7 7 7 6 6 8 7 6 7 8 10 10 10 10
19 18 18 16 15 15 14 13 13 13 12 12 11 10 10 9 8 7 5 5 6 6 5 6 6 7 7 8 8 8 7 7 6 8 8 6 8 11 7 10 12 12 11
18 18 16 16 15 15 15 14 13 12 11 11 10 9 8 7 6 5 5 5 5 4 4 5 6 6 7 7 6 6 6 5 7 12 7 6 8 13 9 9 11 11 10
18 17 19 15 15 15 15 13 12 11 11 11 10 9 8 7 6 5 5 4 3 3 4 5 6 6 6 6 7 7 7 7 15 7 4 5 10 10 8 8 10 12 12
17 16 18 15 14 15 15 14 12 12 11 10 9 7 7 6 5 4 3 3 3 3 3 4 5 6 7 7 5 4 4 7 10 10 9 8 9 6 8 11 10 11 12
14 15 17 15 14 13 13 13 12 11 9 8 8 6 5 5 4 3 2 1 2 2 3 4 6 7 6 5 4 4 4 8 12 10 10 11 11 8 12 14 13 13 13
12 14 15 17 15 12 11 11 11 9 9 9 7 6 5 4 3 3 2 1 1 2 6 7 7 6 5 4 4 4 6 8 13 9 11 9 13 13 14 15 16 16 16
14 14 15 14 15 14 14 12 10 10 9 8 7 6 5 5 5 6 6 6 3 6 7 7 6 5 4 3 3 4 8 14 14 12 10 7 11 14 16 17 17 17 17
10 11 11 13 14 14 13 13 10 9 7 6 8 7 8 9 9 9 7 5 7 7 6 6 5 3 2 6 5 5 12 8 11 9 8 12 11 15 16 17 17 16 16
15 14 12 11 10 11 7 8 10 10 9 8 8 7 9 5 3 5 7 6 7 7 6 5 3 5 10 6 6 8 7 11 10 9 8 10 12 15 15 15 15 16 16
15 12 13 12 10 10 8 7 6 6 6 6 7 6 6 3 5 7 5 7 5 7 6 6 6 5 8 7 8 9 10 10 7 7 8 6 10 14 14 13 13 13 13
13 12 11 11 9 9 6 6 6 5 5 5 6 6 4 5 3 3 3 1 3 1 3 3 5 5 8 8 10 9 10 9 7 7 9 5 6 12 12 12 13 13 13
11 12 12 12 12 10 8 5 5 5 5 5 4 6 5 5 3 4 1 2 4 3 4 5 7 7 9 8 9 9 10 10 10 7 6 5 2 8 10 10 11 13 13
10 11 11 12 11 11 10 9 6 6 5 5 5 5 6 5 3 3 3 1 2 4 4 6 4 6 7 8 9 10 10 10 10 10 8 7 7 4 6 8 10 12 13
10 10 11 12 12 11 11 9 8 6 7 6 5 5 6 6 5 2 1 2 3 4 3 2 6 7 7 8 10 10 10 10 10 9 8 6 3 12 5 5 10 12 12
12 13 12 11 13 13 11 9 7 7 6 6 5 6 7 6 5 4 3 1 2 1 2 5 6 7 8 8 9 10 10 9 10 9 8 6 6 7 5 4 7 12 11
14 12 13 13 13 13 12 9 8 6 6 5 5 5 7 6 6 2 2 3 2 2 5 5 6 7 8 8 9 10 10 9 8 7 6 6 5 8 7 5 4 11 7
12 12 11 11 13 11 8 8 7 6 5 5 5 5 6 5 5 2 3 3 3 5 5 5 7 8 9 8 9 11 9 8 5 7 8 9 6 9 10 4 6 8 5
10 10 11 11 11 10 9 9 8 8 6 5 5 6 7 5 5 4 3 3 6 5 5 6 7 9 9 7 9 9 11 5 5 5 6 8 8 10 5 9 6 4 9
10 10 10 11 11 10 8 7 5 5 6 6 6 6 5 5 4 3 5 3 2 6 5 6 7 9 9 6 8 11 7 7 3 8 6 6 6 7 11 11 10 10 6
9 9 9 10 11 11 9 7 6 7 7 6 7 6 5 4 5 4 2 4 4 5 5 5 7 8 9 8 5 7 7 7 11 6 7 6 7 9 9 11 11 9 4
8 7 9 10 11 10 12 10 11 8 8 6 6 4 4 5 3 2 1 3 4 6 6 6 5 7 7 9 8 6 7 11 11 8 10 8 7 10 11 10 12 10 8
8 9 9 11 11 12 10 9 9 7 6 6 5 7 5 4 2 1 2 3 4 6 5 6 7 7 8 7 8 8 7 8 8 10 12 11 10 8 9 9 10 12 11
11 11 11 11 10 10 9 9 6 8 8 7 6 6 4 3 2 1 3 4 4 5 5 6 5 7 6 7 7 6 7 8 8 9 10 12 14 10 8 8 11 9 7
Wind_Direction
163 140 155 164 157 147 141 136 136 136 135 131 128 125 127 126 127 123 122 118 111 105 99 94 85 79 75 70 65 58 50 41 29 15 357 343 342 346 334 308 287 269 141
150 148 157 161 160 155 143 138 135 138 137 134 132 135 133 133 128 128 123 113 106 99 91 85 80 77 71 65 56 42 27 11 359 348 325 251 176 60 354 332 328 298 317
150 151 164 163 163 157 149 145 144 146 142 138 138 140 135 134 134 131 124 121 106 93 87 82 76 67 59 49 38 24 11 358 345 321 282 293 351 67 356 333 323 317 285
148 151 162 164 164 159 153 152 152 154 145 140 139 142 142 141 138 128 124 110 99 93 85 75 66 58 50 41 33 21 7 352 326 286 264 350 339 75 6 337 324 304 288
155 158 149 165 162 160 159 160 159 154 146 146 146 145 141 146 133 118 105 94 91 88 83 75 67 61 54 46 37 31 23 360 293 260 344 5 323 57 5 346 325 325 329
161 160 138 160 160 163 164 163 158 156 154 153 157 157 157 154 133 130 118 110 88 69 64 64 64 64 60 55 61 52 27 346 310 309 340 339 283 38 343 338 343 342 325
162 162 153 159 166 169 166 166 163 166 165 162 163 162 164 150 146 138 125 106 88 71 62 70 81 82 84 85 81 60 22 334 311 316 316 305 322 18 326 318 324 326 324
162 159 149 161 170 170 169 171 172 171 163 164 167 168 167 161 153 157 129 99 80 75 76 92 98 103 97 92 71 41 9 337 299 306 302 304 56 356 318 310 309 308 308
167 169 158 175 177 174 174 175 175 169 168 172 173 171 172 180 188 181 168 164 157 124 114 107 108 112 112 89 57 18 339 310 296 305 297 293 27 344 315 309 305 302 299
171 177 176 179 178 187 179 185 181 177 178 179 185 187 189 197 199 201 206 180 171 132 126 127 121 112 98 74 31 341 306 284 270 306 294 353 4 328 312 307 303 300 296
172 181 184 180 179 194 186 171 186 188 187 190 196 198 205 229 185 177 92 106 141 133 128 121 109 102 219 200 198 270 283 288 306 300 301 37 354 319 307 304 302 300 296
176 181 185 193 190 193 186 169 202 188 206 205 206 200 225 218 239 323 79 127 127 130 128 125 154 226 235 306 285 226 291 310 303 305 299 21 340 310 306 305 306 296 293
179 179 186 185 191 198 189 183 191 198 201 198 219 225 233 238 198 220 164 183 179 191 219 209 221 284 332 320 312 311 311 309 311 304 306 32 328 312 309 304 306 316 323
174 182 182 177 189 210 188 198 194 203 198 213 203 200 224 224 201 264 261 272 244 310 318 290 313 327 302 314 308 307 311 309 309 310 302 77 331 313 314 317 319 312 313
179 181 191 186 188 186 207 197 217 217 199 214 204 192 224 228 214 226 128 289 328 314 322 328 315 338 313 296 307 312 309 305 305 294 301 147 299 306 318 326 325 319 316
197 190 196 193 182 193 203 209 201 211 200 214 208 203 203 223 177 179 180 222 305 346 329 344 345 304 302 311 306 304 300 299 306 300 304 300 163 246 303 327 333 327 323
204 209 192 196 187 202 200 199 212 203 210 211 206 180 196 196 178 125 106 290 289 22 9 298 263 283 295 306 302 301 302 298 296 290 288 296 237 185 208 309 331 327 322
215 195 199 203 186 196 199 195 209 203 209 205 189 171 180 161 160 186 176 226 92 172 281 248 301 308 311 311 310 303 304 294 290 281 268 283 312 313 292 130 332 319 317
205 213 202 206 206 195 199 196 204 184 214 193 183 171 174 156 151 210 206 143 169 235 252 298 307 311 310 309 305 305 303 294 295 281 262 272 306 292 312 326 266 280 286
207 208 212 206 216 196 188 197 190 177 186 177 173 152 150 145 156 188 113 146 230 235 282 325 311 317 305 310 309 300 295 296 293 302 289 263 307 279 276 328 299 301 255
206 202 206 204 197 193 190 190 186 185 172 162 146 150 157 158 135 167 167 175 240 273 327 299 308 307 308 319 307 312 295 235 279 277 285 245 282 291 279 261 248 293 299
196 200 198 203 190 196 192 200 196 168 168 152 147 153 140 145 154 136 198 242 288 301 267 297 313 306 306 327 305 307 325 291 206 293 290 310 287 321 298 299 313 305 297
192 192 190 188 178 188 179 159 158 138 141 160 161 167 137 144 167 209 238 299 287 276 304 325 309 307 309 307 305 300 315 320 328 290 281 304 310 300 306 291 295 301 299
181 169 166 164 167 168 173 175 174 173 176 169 161 139 148 165 151 154 269 308 307 320 320 300 299 314 292 309 310 298 312 305 303 307 306 290 306 309 307 302 304 293 241
174 158 150 153 159 155 167 169 173 177 124 151 150 155 111 125 118 142 302 312 315 295 337 307 302 305 303 305 309 320 303 290 297 304 311 313 307 310 306 325 313 283 325
166 156 152 152 146 149 152 152 171 139 152 152 152 160 158 158 168 16 329 327 321 320 290 298 315 276 309 307 322 306 317 318 322 317 312 316 314 321 317 305 297 309 299